Zurück zum Katalog

OPS 2644

AktivMilitärPO
NORAD 3673·PAYLOAD·🇺🇸 United States

Gestartet Feb 5, 1969 von Vandenberg Space Force Base

Loading…

Nächste Überflüge (nächste 24 Stunden)

TLE

AktuellSource: Space-Track

Epoche: Sep 14, 2026, 08:47 UTC

1 03673U 69010B   26257.36663583  .00000111  00000-0  57311-3 0  9990
2 03673  80.3898  96.3807 0024992 260.1233 213.9941 12.63666755654723

Verfolge OPS 2644 in Echtzeit mit AllMySat

Download on the App Store